Simultaneous Nadir Overpasses (SNOs) Predictions

Prediction of SNOs between AURA and NPP Satellite Orbit:

Table of predicted SNOs for the next 14.0 days since TLE Epoch: 4/30/2016
Index Date (AURA) Time (AURA) Lat,Lon (AURA) SZA (AURA ) Date (NPP) Time (NPP) Lat,Lon (NPP) SZA (NPP ) Distance(km) Time Diff (sec)
1 04/30/2016 10:35:51 -79.15, 95.50 101.94 04/30/2016 10:35:04 -79.15, 95.52 101.91 0.53 47
2 04/30/2016 11:25:10 79.42, -95.13 77.67 04/30/2016 11:25:41 79.41, -95.20 77.66 1.72 31
3 05/03/2016 02:52:15 -79.24,-148.03 102.87 05/03/2016 02:51:57 -79.25,-148.03 102.86 0.20 18
4 05/03/2016 03:41:34 79.51, 21.36 76.75 05/03/2016 03:42:34 79.50, 21.27 76.72 1.87 60
5 05/05/2016 18:19:19 79.04, 158.95 76.67 05/05/2016 18:18:13 79.04, 158.94 76.72 0.34 66
6 05/05/2016 19:08:38 -79.36, -31.36 103.81 05/05/2016 19:08:49 -79.37, -31.32 103.82 0.90 11
7 05/08/2016 10:35:40 79.23, -83.98 75.67 05/08/2016 10:35:03 79.24, -83.89 75.68 2.09 37
8 05/08/2016 11:25:00 -79.51, 85.52 104.75 05/08/2016 11:25:40 -79.52, 85.67 104.81 3.08 40
9 05/11/2016 02:52:03 79.29, 32.30 74.89 05/11/2016 02:51:56 79.29, 32.27 74.90 0.63 7
10 05/11/2016 03:41:23 -79.57,-158.17 105.53 05/11/2016 03:42:33 -79.57,-158.15 105.58 0.29 70
11 05/13/2016 18:19:08 -79.08, -20.76 105.46 05/13/2016 18:18:13 -79.08, -20.80 105.41 0.84 55




NCC Satellite Simultaneous Nadir Overpasses (SNOs) Prediction Service
